Home > Weather > Wellington > Past weeks

Flag for New Zealand Past Weather in Wellington, New Zealand — Yesterday and Last 2 Weeks

Now
48 °F

Cool.


Feels Like: 43 °F
Forecast: 50 / 56 °F
Wind: 12 mph from South

Location: Wellington Airport

Current Time: Jul 1, 2016 at 4:38:39 PM

Latest Report: Jul 1, 2016 at 4:00 PM


Visibility: N/A

Pressure: 30.15 "Hg

Humidity: 62%

Dew Point: 36 °F

Location of WellingtonLocation

Past Weather in Wellington — Graph

°F

Wellington Temperature Yesterday

Maximum temperature yesterday: 54 °F (at 12:00 AM)
Minimum temperature yesterday: 48 °F (at 3:30 PM)
Average temperature yesterday: 52 °F

High & Low Weather Summary for the Past Weeks

 TemperatureHumidityPressure
High61 °F (Jun 22, 12:30 AM)100% (Jun 23, 12:30 PM)30.36 "Hg (Jun 23, 12:30 PM)
Low46 °F (Jun 25, 2:30 AM)54% (Jul 1, 10:30 AM)29.24 "Hg (Jun 26, 5:00 PM)
Average55 °F82%29.86 "Hg
* Reported Jun 16 3:00 PM — Jul 1 3:30 PM, Wellington, Weather by CustomWeather, © 2016

Note: Actual official high and low records may vary slightly from our data, if they occured in-between our weather recording intervals... More about our weather records

Advertising

Wellington Weather History for the Previous 24 Hours

Scroll right to see more
 ConditionsComfort  
Time TempWeatherWind HumidityBarometerVisibility
3:30 PM
Fri, Jul 1
48 °FCool.13 mph62%30.15 "HgN/A
3:00 PM50 °FPassing clouds.14 mph58%30.15 "HgN/A
2:30 PM50 °FScattered clouds.15 mph58%30.15 "HgN/A
2:00 PM50 °FCool.16 mph54%30.15 "HgN/A
1:30 PM50 °FOvercast.18 mph58%30.15 "HgN/A
1:00 PM50 °FPartly sunny.20 mph62%30.15 "HgN/A
12:30 PM52 °FPartly sunny.21 mph58%30.18 "HgN/A
12:00 PM50 °FPartly sunny.22 mph62%30.18 "HgN/A
11:30 AM50 °FScattered showers. Overcast.22 mph54%30.18 "HgN/A
11:00 AM50 °FScattered showers. Mostly cloudy.21 mph58%30.18 "HgN/A
10:30 AM50 °FScattered showers. Partly sunny.21 mph54%30.18 "HgN/A
10:00 AM50 °FScattered clouds.23 mph58%30.18 "HgN/A
9:30 AM50 °FPartly sunny.25 mph58%30.18 "HgN/A
9:00 AM50 °FPartly sunny.24 mph58%30.18 "HgN/A
8:30 AM50 °FMore clouds than sun.23 mph58%30.15 "HgN/A
8:00 AM50 °FPartly sunny.24 mph58%30.15 "HgN/A
7:30 AM48 °FLight rain. Cloudy.24 mph66%30.15 "HgN/A
7:00 AM48 °FLight rain. Broken clouds.22 mph66%30.12 "HgN/A
6:30 AM46 °FSprinkles. Partly cloudy.26 mph82%30.12 "HgN/A
6:00 AM46 °FSprinkles. Passing clouds.22 mph76%30.12 "HgN/A
5:30 AM48 °FSprinkles. Partly cloudy.28 mph76%30.09 "Hg4 mi
5:00 AM48 °FSprinkles. Partly cloudy.31 mph71%30.09 "HgN/A
4:30 AM48 °FSprinkles. Partly cloudy.26 mph76%30.09 "HgN/A
4:00 AM50 °FPartly cloudy.28 mph67%30.07 "HgN/A
3:30 AM50 °FLight rain. Passing clouds.29 mph67%30.07 "HgN/A
3:00 AM50 °FPassing clouds.28 mph67%30.07 "HgN/A
2:30 AM50 °FPassing clouds.28 mph62%30.07 "HgN/A
2:00 AM50 °FPassing clouds.29 mph62%30.07 "HgN/A
1:30 AM50 °FPassing clouds.30 mph67%30.07 "HgN/A
1:00 AM50 °FPartly cloudy.29 mph71%30.04 "HgN/A
12:30 AM50 °FPartly cloudy.31 mph71%30.04 "HgN/A
12:00 AM50 °FScattered showers. Passing clouds.30 mph67%30.04 "HgN/A
11:30 PM
Thu, Jun 30
50 °FScattered showers. Passing clouds.31 mph71%30.04 "HgN/A
11:00 PM50 °FScattered showers. Passing clouds.31 mph71%30.04 "HgN/A
10:30 PM50 °FPartly cloudy.33 mph71%30.01 "HgN/A
10:00 PM50 °FPartly cloudy.33 mph71%30.01 "HgN/A
9:30 PM50 °FPartly cloudy.35 mph71%30.01 "HgN/A
9:00 PM50 °FOvercast.32 mph71%30.01 "HgN/A
8:30 PM52 °FPassing clouds.31 mph72%29.98 "HgN/A
8:00 PM52 °FPartly cloudy.35 mph72%29.98 "HgN/A
7:30 PM52 °FLight rain. Partly cloudy.30 mph72%29.98 "HgN/A
7:00 PM52 °FPartly cloudy.30 mph72%29.95 "HgN/A
6:30 PM52 °FPassing clouds.35 mph72%29.95 "HgN/A
6:00 PM52 °FPartly cloudy.30 mph72%29.95 "HgN/A
5:30 PM50 °FPartly cloudy.36 mph71%29.92 "HgN/A
5:00 PM52 °FMostly cloudy.33 mph72%29.92 "HgN/A
4:30 PM52 °FPartly cloudy.33 mph77%29.92 "HgN/A
4:00 PM52 °FMostly cloudy.36 mph77%29.89 "HgN/A
Weather by CustomWeather, © 2016

See weather overviewHow to use our weather pages